CW5456 Weather Reports


Display with metric or nautical units.
time (UTC)temp
F
wind
direction
speed
MPH
gust
MPH
rain 1hr
in
rain 24hr
in
rain mn
in
humidity
%
barometer
mb
20210617233051 61 237 13.0 15.0 0.00 0.00 0.00 78 1019.1
20210617232551 61 302 12.0 13.0 0.00 0.00 0.00 79 1019.2
20210617232051 61 250 7.0 12.0 0.00 0.00 0.00 79 1019.3
20210617231550 61 262 4.0 11.0 0.00 0.00 0.00 79 1019.3
20210617231051 61 280 10.0 11.0 0.00 0.00 0.00 78 1019.3
20210617230521 61 354 9.0 11.0 0.00 0.00 0.00 78 1019.3
20210617230051 61 271 7.0 12.0 0.00 0.00 0.00 77 1019.4
20210617225551 61 274 11.0 12.0 0.00 0.00 0.00 77 1019.4
20210617225051 61 305 6.0 11.0 0.00 0.00 0.00 77 1019.5
20210617224551 62 250 3.0 10.0 0.00 0.00 0.00 76 1019.5
20210617224051 62 265 6.0 6.0 0.00 0.00 0.00 77 1019.5
20210617223550 62 296 3.0 5.0 0.00 0.00 0.00 77 1019.5
20210617223050 61 289 2.0 7.0 0.00 0.00 0.00 77 1019.5
20210617222550 61 301 4.0 7.0 0.00 0.00 0.00 76 1019.6
20210617222050 61 332 3.0 5.0 0.00 0.00 0.00 78 1019.6
20210617221550 61 315 4.0 6.0 0.00 0.00 0.00 78 1019.7
20210617221050 61 287 5.0 8.0 0.00 0.00 0.00 77 1019.7
20210617220550 61 306 6.0 8.0 0.00 0.00 0.00 77 1019.7
20210617220051 60 256 2.0 7.0 0.00 0.00 0.00 76 1019.8
20210617215550 61 254 4.0 7.0 0.00 0.00 0.00 76 1019.9
20210617215020 61 285 3.0 7.0 0.00 0.00 0.00 76 1019.9
20210617214550 61 269 4.0 6.0 0.00 0.00 0.00 75 1020.0
20210617214050 61 250 2.0 8.0 0.00 0.00 0.00 76 1020.0
20210617213550 61 249 4.0 8.0 0.00 0.00 0.00 75 1020.0
20210617213050 61 266 4.0 9.0 0.00 0.00 0.00 75 1020.0
20210617212550 61 283 3.0 10.0 0.00 0.00 0.00 73 1020.1
20210617212050 61 301 5.0 10.0 0.00 0.00 0.00 74 1020.0
20210617211550 62 310 2.0 8.0 0.00 0.00 0.00 74 1020.1
20210617211050 62 291 2.0 5.0 0.00 0.00 0.00 74 1020.0
20210617210549 62 302 0.0 5.0 0.00 0.00 0.00 75 1020.1
20210617210050 62 308 3.0 5.0 0.00 0.00 0.00 75 1020.0
20210617205550 62 308 5.0 5.0 0.00 0.00 0.00 75 1020.0
20210617205050 62 308 3.0 4.0 0.00 0.00 0.00 75 1020.2
20210617204549 62 308 3.0 6.0 0.00 0.00 0.00 74 1020.2
20210617204050 62 306 2.0 6.0 0.00 0.00 0.00 73 1020.3
20210617203550 63 306 3.0 4.0 0.00 0.00 0.00 72 1020.3
20210617203050 62 306 0.0 4.0 0.00 0.00 0.00 73 1020.3
20210617202549 62 306 1.0 4.0 0.00 0.00 0.00 74 1020.4
20210617202050 61 306 2.0 5.0 0.00 0.00 0.00 76 1020.4
20210617201549 61 306 4.0 5.0 0.00 0.00 0.00 75 1020.5
20210617201050 61 305 4.0 5.0 0.00 0.00 0.00 75 1020.5
20210617200549 61 304 3.0 4.0 0.00 0.00 0.00 76 1020.6
20210617200049 61 308 4.0 4.0 0.00 0.00 0.00 77 1020.6
20210617195549 61 321 1.0 4.0 0.00 0.00 0.00 78 1020.6
20210617195050 60 321 2.0 6.0 0.00 0.00 0.00 78 1020.7
20210617194549 60 321 4.0 8.0 0.00 0.00 0.00 77 1020.7
20210617194050 60 345 3.0 8.0 0.00 0.00 0.00 76 1020.7
20210617193549 61 310 4.0 8.0 0.00 0.00 0.00 73 1020.8
20210617193049 61 345 6.0 6.0 0.00 0.00 0.00 74 1020.9
20210617192549 60 298 1.0 5.0 0.00 0.00 0.00 77 1020.9
20210617192049 60 298 4.0 9.0 0.00 0.00 0.00 76 1021.0
20210617191550 60 277 4.0 10.0 0.00 0.00 0.00 77 1021.0
20210617191049 59 345 5.0 10.0 0.00 0.00 0.00 76 1021.0
20210617190549 59 340 8.0 8.0 0.00 0.00 0.00 77 1021.0
20210617190049 59 15 4.0 4.0 0.00 0.00 0.00 79 1021.0
20210617185549 59 21 2.0 4.0 0.00 0.00 0.00 78 1021.0
20210617185049 59 21 2.0 4.0 0.00 0.00 0.00 79 1020.9
20210617184550 59 21 2.0 5.0 0.00 0.00 0.00 79 1021.0
20210617184049 59 21 1.0 5.0 0.00 0.00 0.00 79 1020.9
20210617183549 59 21 5.0 6.0 0.00 0.00 0.00 79 1020.9
20210617183049 59 22 2.0 6.0 0.00 0.00 0.00 80 1020.9
20210617182550 59 27 4.0 5.0 0.00 0.00 0.00 79 1021.0
20210617182049 59 34 1.0 3.0 0.00 0.00 0.00 80 1021.0
20210617181549 59 34 0.0 3.0 0.00 0.00 0.00 82 1021.0
20210617181049 59 34 1.0 4.0 0.00 0.00 0.00 80 1020.9
20210617180550 58 34 2.0 4.0 0.00 0.00 0.00 80 1021.0
20210617180049 58 35 2.0 4.0 0.00 0.00 0.00 81 1021.2
20210617175549 58 36 1.0 3.0 0.00 0.00 0.00 81 1021.2
20210617175049 58 36 2.0 3.0 0.00 0.00 0.00 81 1021.2
20210617174549 59 36 1.0 3.0 0.00 0.00 0.00 82 1021.2
20210617174049 58 36 3.0 3.0 0.00 0.00 0.00 81 1021.2
20210617173549 58 36 1.0 3.0 0.00 0.00 0.00 80 1021.2
20210617173049 58 36 3.0 3.0 0.00 0.00 0.00 80 1021.2
20210617172549 59 36 3.0 4.0 0.00 0.00 0.00 81 1021.2
20210617172049 58 36 3.0 4.0 0.00 0.00 0.00 80 1021.2
20210617171549 58 36 3.0 4.0 0.00 0.00 0.00 80 1021.3
20210617171049 58 37 2.0 4.0 0.00 0.00 0.00 80 1021.3
20210617170549 59 37 2.0 4.0 0.00 0.00 0.00 81 1021.2
20210617170049 59 38 4.0 4.0 0.00 0.00 0.00 80 1021.2
20210617165548 58 38 2.0 3.0 0.00 0.00 0.00 78 1021.3
20210617165049 58 38 2.0 5.0 0.00 0.00 0.00 78 1021.3
20210617164549 58 38 3.0 5.0 0.00 0.00 0.00 77 1021.3
20210617164048 58 59 4.0 4.0 0.00 0.00 0.00 77 1021.3
20210617163548 58 69 2.0 4.0 0.00 0.00 0.00 77 1021.3
20210617163049 58 69 2.0 3.0 0.00 0.00 0.00 76 1021.3
20210617162549 59 69 2.0 3.0 0.00 0.00 0.00 78 1021.2
20210617162048 59 69 1.0 2.0 0.00 0.00 0.00 79 1021.3
20210617161548 58 69 0.0 1.0 0.00 0.00 0.00 81 1021.3
20210617161048 57 69 0.0 1.0 0.00 0.00 0.00 83 1021.3
20210617160548 57 69 0.0 2.0 0.00 0.00 0.00 83 1021.2
20210617160048 56 69 1.0 2.0 0.00 0.00 0.00 84 1021.2
20210617155549 56 69 2.0 3.0 0.00 0.00 0.00 83 1021.2
20210617155048 56 69 2.0 3.0 0.00 0.00 0.00 83 1021.2
20210617154548 56 69 2.0 3.0 0.00 0.00 0.00 82 1021.2
20210617154048 56 69 1.0 3.0 0.00 0.00 0.00 82 1021.2
20210617153548 56 69 2.0 3.0 0.00 0.00 0.00 83 1021.1
20210617153048 56 69 2.0 3.0 0.00 0.00 0.00 83 1021.2
20210617152549 56 69 2.0 3.0 0.00 0.00 0.00 83 1021.2
20210617152049 56 69 2.0 3.0 0.00 0.00 0.00 82 1021.1
20210617151548 56 69 2.0 3.0 0.00 0.00 0.00 82 1021.2
20210617151048 57 69 1.0 2.0 0.00 0.00 0.00 82 1021.1
20210617150548 57 69 0.0 1.0 0.00 0.00 0.00 82 1021.1
20210617150048 58 69 0.0 1.0 0.00 0.00 0.00 82 1021.1
20210617145548 58 69 1.0 2.0 0.00 0.00 0.00 83 1021.1
20210617145048 58 69 0.0 3.0 0.00 0.00 0.00 86 1021.0
20210617144548 57 69 0.0 3.0 0.00 0.00 0.00 87 1021.0
20210617144048 56 69 1.0 4.0 0.00 0.00 0.00 87 1021.0
20210617143548 55 69 3.0 4.0 0.00 0.00 0.00 88 1021.0
20210617143048 55 69 2.0 4.0 0.00 0.00 0.00 88 1020.9
20210617142548 54 69 2.0 5.0 0.00 0.00 0.00 88 1021.0
20210617142048 54 69 2.0 5.0 0.00 0.00 0.00 89 1021.0
20210617141548 54 57 5.0 5.0 0.00 0.00 0.00 89 1021.0
20210617141048 54 360 2.0 5.0 0.00 0.00 0.00 89 1021.0
20210617140548 53 358 2.0 5.0 0.00 0.00 0.00 90 1021.1
20210617140047 53 358 3.0 5.0 0.00 0.00 0.00 90 1021.0
20210617135548 53 358 4.0 5.0 0.00 0.00 0.00 90 1021.0
20210617135048 53 358 2.0 5.0 0.00 0.00 0.00 90 1021.0
20210617134548 52 358 4.0 5.0 0.00 0.00 0.00 90 1021.0
20210617134048 52 358 3.0 5.0 0.00 0.00 0.00 90 1020.9
20210617133548 52 358 2.0 5.0 0.00 0.00 0.00 90 1020.9
20210617133048 52 358 4.0 5.0 0.00 0.00 0.00 90 1020.8
20210617132548 52 360 4.0 4.0 0.00 0.00 0.00 90 1020.9
20210617132048 52 360 3.0 4.0 0.00 0.00 0.00 90 1020.8
20210617131548 51 360 4.0 4.0 0.00 0.00 0.00 90 1020.9
20210617131048 51 360 3.0 4.0 0.00 0.00 0.00 90 1020.8
20210617130547 52 360 2.0 4.0 0.00 0.00 0.00 90 1020.8
20210617130048 51 360 2.0 4.0 0.00 0.00 0.00 90 1020.7
20210617125547 51 360 2.0 5.0 0.00 0.00 0.00 90 1020.7
20210617125048 51 360 3.0 5.0 0.00 0.00 0.00 90 1020.6
20210617124547 51 360 4.0 5.0 0.00 0.00 0.00 90 1020.7
20210617124048 51 360 3.0 5.0 0.00 0.00 0.00 90 1020.7
20210617123548 51 360 3.0 5.0 0.00 0.00 0.00 90 1020.7
20210617123048 50 360 3.0 4.0 0.00 0.00 0.00 90 1020.8
20210617122547 50 360 3.0 4.0 0.00 0.00 0.00 90 1020.7
20210617122047 50 360 4.0 4.0 0.00 0.00 0.00 90 1020.8
20210617121547 50 360 3.0 4.0 0.00 0.00 0.00 90 1020.8
20210617121047 50 360 2.0 4.0 0.00 0.00 0.00 90 1020.8
20210617120547 50 360 2.0 3.0 0.00 0.00 0.00 90 1020.7
20210617120047 50 360 3.0 3.0 0.00 0.00 0.00 90 1020.7
20210617115548 50 360 1.0 3.0 0.00 0.00 0.00 90 1020.7
20210617115047 50 360 2.0 2.0 0.00 0.00 0.00 90 1020.6
20210617114547 50 360 0.0 0.0 0.00 0.00 0.00 90 1020.6
20210617114047 50 360 0.0 0.0 0.00 0.00 0.00 90 1020.6
20210617113547 50 360 0.0 2.0 0.00 0.00 0.00 89 1020.5
20210617113047 51 360 0.0 2.0 0.00 0.00 0.00 89 1020.6
20210617112547 51 360 1.0 2.0 0.00 0.00 0.00 89 1020.6
20210617112047 51 360 0.0 1.0 0.00 0.00 0.00 89 1020.6
20210617111547 51 360 0.0 1.0 0.00 0.00 0.00 89 1020.6
20210617111047 51 360 0.0 1.0 0.00 0.00 0.00 89 1020.6
20210617110547 51 360 0.0 0.0 0.00 0.00 0.00 89 1020.5
20210617110047 51 360 0.0 0.0 0.00 0.00 0.00 89 1020.6
20210617105547 51 360 0.0 1.0 0.00 0.00 0.00 89 1020.6
20210617105047 51 360 0.0 2.0 0.00 0.00 0.00 89 1020.6
20210617104547 51 360 0.0 2.0 0.00 0.00 0.00 89 1020.6
20210617104047 51 360 0.0 1.0 0.00 0.00 0.00 89 1020.7
20210617103547 51 360 0.0 3.0 0.00 0.00 0.00 89 1020.8
20210617103047 51 360 0.0 4.0 0.00 0.00 0.00 89 1020.8
20210617102547 51 360 0.0 4.0 0.00 0.00 0.00 88 1020.7
20210617102047 51 360 0.0 2.0 0.00 0.00 0.00 88 1020.7
20210617101547 51 360 0.0 1.0 0.00 0.00 0.00 88 1020.7
20210617101047 51 360 0.0 1.0 0.00 0.00 0.00 88 1020.8
20210617100547 51 360 0.0 1.0 0.00 0.00 0.00 88 1020.7
20210617100046 51 360 0.0 0.0 0.00 0.00 0.00 88 1020.7
20210617095546 51 360 0.0 1.0 0.00 0.00 0.00 87 1020.8
20210617095046 51 360 0.0 1.0 0.00 0.00 0.00 87 1020.8
20210617094546 51 360 0.0 1.0 0.00 0.00 0.00 87 1020.8
20210617094047 52 360 0.0 1.0 0.00 0.00 0.00 87 1020.7
20210617093547 52 360 0.0 2.0 0.00 0.00 0.00 87 1020.7
20210617093047 52 360 0.0 3.0 0.00 0.00 0.00 87 1020.7
20210617092546 52 360 2.0 3.0 0.00 0.00 0.00 86 1020.8
20210617092046 52 360 0.0 3.0 0.00 0.00 0.00 86 1020.8
20210617091546 52 360 0.0 3.0 0.00 0.00 0.00 86 1020.8
20210617091046 53 360 0.0 4.0 0.00 0.00 0.00 86 1020.9
20210617090546 53 360 0.0 4.0 0.00 0.00 0.00 86 1020.9
20210617090047 53 360 3.0 4.0 0.00 0.00 0.00 86 1020.8
20210617085547 53 360 2.0 4.0 0.00 0.00 0.00 86 1020.8
20210617085046 53 360 3.0 4.0 0.00 0.00 0.00 85 1020.9
20210617084546 53 360 0.0 3.0 0.00 0.00 0.00 85 1020.8
20210617084046 53 360 1.0 3.0 0.00 0.00 0.00 84 1020.9
20210617083546 53 360 0.0 3.0 0.00 0.00 0.00 83 1020.8
20210617083046 54 360 0.0 3.0 0.00 0.00 0.00 83 1020.8
20210617082546 54 360 1.0 3.0 0.00 0.00 0.00 82 1020.9
20210617082046 54 360 0.0 3.0 0.00 0.00 0.00 82 1020.8
20210617081547 54 360 0.0 4.0 0.00 0.00 0.00 82 1020.9
20210617081046 55 360 1.0 5.0 0.00 0.00 0.00 82 1020.9
20210617080546 54 360 3.0 5.0 0.00 0.00 0.00 83 1020.8
20210617080046 54 360 3.0 7.0 0.00 0.00 0.00 83 1020.8
20210617075546 54 360 4.0 7.0 0.00 0.00 0.00 84 1020.9
20210617075046 53 360 3.0 4.0 0.00 0.00 0.00 85 1021.0
20210617074546 53 360 0.0 3.0 0.00 0.00 0.00 85 1021.1
20210617074046 54 360 0.0 1.0 0.00 0.00 0.00 84 1021.0
20210617073546 54 360 0.0 2.0 0.00 0.00 0.00 84 1021.1
20210617073046 54 360 0.0 2.0 0.00 0.00 0.00 84 1021.1
20210617072546 54 360 0.0 5.0 0.00 0.00 0.00 84 1021.1
20210617072046 54 360 2.0 8.0 0.00 0.00 0.00 84 1021.1
20210617071546 54 360 5.0 9.0 0.00 0.00 0.00 84 1021.1
20210617071045 55 360 7.0 10.0 0.00 0.00 0.00 84 1021.1
20210617070546 55 360 7.0 11.0 0.00 0.00 0.00 84 1021.1
20210617070045 55 360 8.0 11.0 0.00 0.00 0.00 84 1021.1
20210617065546 54 1 9.0 11.0 0.00 0.00 0.00 84 1021.2
20210617065046 54 1 8.0 10.0 0.00 0.00 0.00 84 1021.1
20210617064545 54 1 9.0 12.0 0.00 0.00 0.00 84 1021.2
20210617064046 54 360 9.0 13.0 0.00 0.00 0.00 84 1021.2
20210617063546 55 360 10.0 13.0 0.00 0.00 0.00 84 1021.2
20210617063045 55 356 10.0 12.0 0.00 0.00 0.00 83 1021.2
20210617062545 55 357 9.0 13.0 0.00 0.00 0.00 83 1021.3
20210617062045 55 360 9.0 13.0 0.00 0.00 0.00 82 1021.3
20210617061545 55 4 11.0 14.0 0.00 0.00 0.00 82 1021.3
20210617061045 55 2 13.0 14.0 0.00 0.00 0.00 82 1021.3
20210617060545 55 2 10.0 13.0 0.00 0.00 0.00 81 1021.3
20210617060046 56 2 11.0 14.0 0.00 0.00 0.00 80 1021.3
20210617055545 56 1 10.0 14.0 0.00 0.00 0.00 80 1021.4
20210617055045 55 350 10.0 11.0 0.00 0.00 0.00 81 1021.4
20210617054545 55 350 5.0 11.0 0.00 0.00 0.00 82 1021.5
20210617054045 56 304 4.0 11.0 0.00 0.00 0.00 81 1021.4
20210617053545 56 304 6.0 11.0 0.00 0.00 0.00 80 1021.3
20210617053045 57 345 4.0 10.0 0.00 0.00 0.00 79 1021.3
20210617052545 57 354 7.0 10.0 0.00 0.00 0.00 79 1021.3
20210617052045 57 350 8.0 10.0 0.00 0.00 0.00 80 1021.3
20210617051545 56 9 9.0 10.0 0.00 0.00 0.00 80 1021.3
20210617051045 56 8 4.0 7.0 0.00 0.00 0.00 81 1021.3
20210617050545 56 296 3.0 9.0 0.00 0.00 0.00 81 1021.4
20210617050045 56 294 4.0 10.0 0.00 0.00 0.00 80 1021.3
20210617045545 56 300 5.0 11.0 0.00 0.00 0.00 80 1021.4
20210617045045 56 264 9.0 11.0 0.00 0.00 0.00 80 1021.4
20210617044545 56 260 6.0 10.0 0.00 0.00 0.00 79 1021.4
20210617044045 57 256 4.0 10.0 0.00 0.00 0.00 78 1021.4
20210617043545 57 247 4.0 13.0 0.00 0.00 0.00 77 1021.4
20210617043045 57 285 9.0 13.0 0.00 0.00 0.00 76 1021.4
20210617042545 57 266 10.0 13.0 0.00 0.00 0.00 75 1021.4
20210617042045 58 340 8.0 12.0 0.00 0.00 0.00 75 1021.4
20210617041545 58 350 6.0 12.0 0.00 0.00 0.00 74 1021.4
20210617041045 58 340 8.0 13.0 0.00 0.00 0.00 75 1021.4
20210617040545 58 272 11.0 13.0 0.00 0.00 0.00 75 1021.3
20210617040045 59 298 0.0 11.0 0.00 0.00 0.00 75 1021.3
20210617035545 58 301 8.0 12.0 0.00 0.00 0.00 75 1021.3
20210617035045 58 300 10.0 12.0 0.00 0.00 0.00 76 1021.3
20210617034545 58 345 5.0 10.0 0.00 0.00 0.00 78 1021.3
20210617034045 58 345 0.0 6.0 0.00 0.00 0.00 78 1021.4
20210617033545 58 345 3.0 10.0 0.00 0.00 0.00 78 1021.3
20210617033045 58 275 1.0 10.0 0.00 0.00 0.00 78 1021.4
20210617032545 59 250 3.0 8.0 0.00 0.00 0.00 78 1021.4
20210617032045 59 304 2.0 9.0 0.00 0.00 0.00 78 1021.4
20210617031545 59 314 2.0 9.0 0.00 0.00 0.00 78 1021.5
20210617031045 59 246 3.0 8.0 0.00 0.00 0.00 79 1021.5
20210617030545 59 340 0.0 5.0 0.00 0.00 0.00 80 1021.6
20210617030045 59 340 1.0 5.0 0.00 0.00 0.00 80 1021.6
20210617025544 59 331 4.0 5.0 0.00 0.00 0.00 79 1021.6
20210617025044 59 340 0.0 3.0 0.00 0.00 0.00 79 1021.7
20210617024544 59 340 0.0 8.0 0.00 0.00 0.00 79 1021.6
20210617024044 59 340 0.0 8.0 0.00 0.00 0.00 79 1021.7
20210617023545 59 279 5.0 9.0 0.00 0.00 0.00 78 1021.7
20210617023044 59 304 5.0 10.0 0.00 0.00 0.00 78 1021.7
20210617022544 59 303 1.0 11.0 0.00 0.00 0.00 77 1021.7
20210617022044 59 296 3.0 11.0 0.00 0.00 0.00 76 1021.9
20210617021544 60 240 11.0 11.0 0.00 0.00 0.00 77 1021.9
20210617021044 60 292 11.0 11.0 0.00 0.00 0.00 76 1021.9
20210617020544 60 274 8.0 11.0 0.00 0.00 0.00 75 1021.9
20210617020044 60 279 1.0 11.0 0.00 0.00 0.00 75 1021.9
20210617015544 60 264 2.0 9.0 0.00 0.00 0.00 76 1022.0
20210617015044 60 301 6.0 9.0 0.00 0.00 0.00 76 1022.1
20210617014544 60 281 5.0 8.0 0.00 0.00 0.00 76 1022.1
20210617014044 60 287 5.0 9.0 0.00 0.00 0.00 76 1022.1
20210617013544 60 297 4.0 9.0 0.00 0.00 0.00 76 1022.2
20210617013044 60 298 6.0 9.0 0.00 0.00 0.00 77 1022.2
20210617012544 60 290 5.0 9.0 0.00 0.00 0.00 77 1022.3
20210617012044 60 304 5.0 11.0 0.00 0.01 0.00 77 1022.3
20210617011544 61 291 8.0 11.0 0.00 0.02 0.00 77 1022.4
20210617011044 61 329 5.0 12.0 0.00 0.03 0.00 76 1022.4
20210617010544 61 308 9.0 13.0 0.00 0.04 0.00 74 1022.5
20210617010044 61 290 10.0 13.0 0.00 0.05 0.00 74 1022.5
20210617005544 61 309 10.0 13.0 0.00 0.05 0.00 75 1022.6
20210617005044 61 284 10.0 12.0 0.00 0.06 0.00 76 1022.7
20210617004544 61 319 9.0 12.0 0.00 0.06 0.00 76 1022.8
20210617004044 60 309 8.0 11.0 0.00 0.06 0.00 77 1022.7
20210617003544 60 296 6.0 11.0 0.00 0.06 0.00 78 1022.7
20210617003044 60 308 10.0 11.0 0.00 0.06 0.00 77 1022.8
20210617002544 60 290 8.0 10.0 0.00 0.06 0.00 77 1022.9
20210617002044 61 300 4.0 9.0 0.00 0.06 0.00 77 1022.9
20210617001544 61 269 4.0 8.0 0.00 0.06 0.00 79 1023.0
20210617001044 61 289 5.0 10.0 0.00 0.06 0.00 79 1023.1
20210617000544 61 302 5.0 11.0 0.00 0.06 0.00 78 1023.1
20210617000044 61 297 8.0 12.0 0.00 0.06 0.00 78 1023.2
20210616235544 61 302 9.0 12.0 0.00 0.06 0.00 78 1023.3
20210616235043 60 296 11.0 13.0 0.00 0.06 0.00 77 1023.3
20210616234544 60 315 12.0 14.0 0.00 0.06 0.00 77 1023.4
20210616234043 60 340 11.0 15.0 0.00 0.06 0.00 78 1023.4
20210616233544 60 310 12.0 15.0 0.00 0.06 0.00 78 1023.5